New Bedford, MA

9:38 PM EDT on August 28, 2014 (GMT -0400)
New Bedford Northwest End | Change Station
CLOSE
Current Station
Personal Weather Station
Location: New Bedford, MA
Elevation: 165 ft
Nearby Weather Stations
Active Advisory: High Surf Advisory

Elev 165 ft 41.65 °N, 70.97 °W | Updated 10 minutes ago

Clear
Clear
65.7 °F
Feels Like 65.7 °F
N
0.0
Wind Variable Wind from NNE

Today
High -- | Low -- °F
--% Chance of Precip.
Yesterday
High -- | Low -- °F
Precip. -- in
6:05 AM 7:23 PM
Waxing Crescent, 11% visible
Pressure 29.92 in
Visibility 10.0 miles
Clouds Clear
Dew Point 52 °F
Humidity 61%
Rainfall 0.00 in
Snow Depth Not available.
UV 0 out of 12
Pollen 8.70 out of 12
Ozone Good
PM2.5 Good
Flu Activity Not available.
METAR KEWB 290053Z 32003KT 10SM CLR 20/09 A2992 RMK AO2 SLP131 T02000094

More Conditions Fewer Conditions

Pressure 29.92 in
Visibility 10.0 miles
Clouds Clear
Dew Point 52 °F
Humidity 61%
Rainfall 0.00 in
Snow Depth Not available.
UV 0 out of 12
Pollen 8.70 out of 12
Ozone Good
PM2.5 Good
Flu Activity Not available.
METAR KEWB 290053Z 32003KT 10SM CLR 20/09 A2992 RMK AO2 SLP131 T02000094

More Conditions Fewer Conditions

10-Day Weather Forecast

Almanac

Astronomy

Aug. 28, 2014 Rise Set
Actual Time 6:05 AM EDT 7:23 PM EDT
Civil Twilight 5:36 AM EDT 7:52 PM EDT
Nautical Twilight 5:02 AM EDT 8:26 PM EDT
Astronomical Twilight 4:25 AM EDT 9:03 PM EDT
Moon 8:57 AM EDT (8/28) 8:42 PM EDT (8/28)
Length of Visible Light 14h 15m
Length of Day
13h 17m
Tomorrow will be 2m 38s shorter.
Waxing Crescent, 11% of the Moon is Illuminated
Today
Waxing Crescent
Sep 2
First Quarter
Sep 8
Full
Sep 15
Last Quarter
Sep 24
New

Today's Extremes

State Highs State Lows

Community

WunderPhotos

Upload Photos

1,748,130 photos uploaded!

Nearby

Air Quality

  Air Quality AQ Index Pollutant
Yesterday Good
OZONE
Yesterday Good
PM2.5
Current Good
PM2.5
Current Good
OZONE
Thursday Good
PM2.5
Thursday Good
OZONE
Friday Good
PM2.5
Friday Good
OZONE

Snow Depth

Station Depth Elevation
No new snow has been reported.

Earthquake Activity

City Distance Mag. Time & Date
No recent earthquake activity has been reported nearby.
Minimum magnitude displayed is 2.5.

Coastal Water Temperatures

Place Temperature
Woods Hole, MA 72.0 °F
Fall River, MA 73.9 °F
Newport, RI 68.0 °F

Nearby Weather Stations